User: anonymous   Login
Location: ??
(31.9467°N, 34.8903°E)
Time: 02:35:52
(UTC+00:00)
Language:

CRYOSAT 2 - Orbit

View from above orbital plane
View from above orbital plane
View from above satellite
View from above satellite

Ground track
Ground track

The orbit data is extracted from the following two-line orbital elements,

1 36508U 10013A   21018.76747668  .00000000  00000-0 -64826-6 0  9993
2 36508  92.0187 159.7787 0005752 175.5776 184.5483 14.51909820571490
Epoch (UTC): 18 January 2021 18:25:09
Eccentricity: 0.0005752
inclination: 92.0187°
perigee height: 715 km
apogee height: 723 km
right ascension of ascending node: 159.7787°
argument of perigee: 175.5776°
revolutions per day: 14.51909820
mean anomaly at epoch: 184.5483°
orbit number at epoch: 57149

The dashed part of the orbit path shows where the satellite is in the earth's shadow,  

DLR